Time,TemperatureF,DewpointF,PressureIn,WindDirection,WindDirectionDegrees,WindSpeedMPH,WindSpeedGustMPH,Humidity,HourlyPrecipIn,Conditions,Clouds,dailyrainin,SoftwareType,DateUTC
2013-09-06 00:01:00,45.5,43.6,30.18,North,0,0.0,0.0,93,0.00,,,0.00,WUHU216HW,2013-09-06 04:01:00,
2013-09-06 00:02:00,45.4,43.5,30.18,North,0,0.0,0.0,93,0.00,,,0.00,WUHU216HW,2013-09-06 04:02:00,
2013-09-06 00:03:00,45.4,43.5,30.18,North,0,0.0,0.0,93,0.00,,,0.00,WUHU216HW,2013-09-06 04:03:00,
2013-09-06 00:04:00,45.4,43.5,30.18,North,0,0.0,0.0,93,0.00,,,0.00,WUHU216HW,2013-09-06 04:04:00,
2013-09-06 00:09:00,45.4,43.8,30.17,North,0,0.0,0.0,94,0.00,,,0.00,WUHU216HW,2013-09-06 04:09:00,
2013-09-06 00:10:00,45.4,43.8,30.18,North,0,0.0,0.0,94,0.00,,,0.00,WUHU216HW,2013-09-06 04:10:00,
2013-09-06 00:15:00,45.2,43.6,30.18,North,0,0.0,0.0,94,0.00,,,0.00,WUHU216HW,2013-09-06 04:15:00,
2013-09-06 00:20:00,45.2,43.6,30.18,North,0,0.0,0.0,94,0.00,,,0.00,WUHU216HW,2013-09-06 04:20:00,
2013-09-06 00:25:00,45.0,43.4,30.17,North,0,0.0,0.0,94,0.00,,,0.00,WUHU216HW,2013-09-06 04:25:00,
2013-09-06 00:30:00,45.0,43.4,30.17,North,0,0.0,0.0,94,0.00,,,0.00,WUHU216HW,2013-09-06 04:30:00,
2013-09-06 00:35:00,44.8,43.6,30.17,North,0,0.0,0.0,96,0.00,,,0.00,WUHU216HW,2013-09-06 04:35:00,
2013-09-06 00:40:00,44.6,43.4,30.17,North,0,0.0,0.0,96,0.00,,,0.00,WUHU216HW,2013-09-06 04:40:00,
2013-09-06 00:45:00,44.5,43.3,30.17,North,0,0.0,0.0,96,0.00,,,0.00,WUHU216HW,2013-09-06 04:45:00,
2013-09-06 00:50:00,44.3,43.1,30.17,North,0,0.0,0.0,96,0.00,,,0.00,WUHU216HW,2013-09-06 04:50:00,
2013-09-06 00:55:00,44.3,43.1,30.18,North,0,0.0,0.0,96,0.00,,,0.00,WUHU216HW,2013-09-06 04:55:00,
2013-09-06 01:00:00,44.3,43.1,30.18,North,0,0.0,0.0,96,0.00,,,0.00,WUHU216HW,2013-09-06 05:00:00,
2013-09-06 01:05:00,44.3,43.1,30.18,North,0,0.0,0.0,96,0.00,,,0.00,WUHU216HW,2013-09-06 05:05:00,
2013-09-06 01:10:00,44.3,43.1,30.18,North,0,0.0,0.0,96,0.00,,,0.00,WUHU216HW,2013-09-06 05:10:00,
2013-09-06 01:15:00,44.3,43.1,30.18,North,0,0.0,0.0,96,0.00,,,0.00,WUHU216HW,2013-09-06 05:15:00,
2013-09-06 01:20:00,44.1,42.9,30.18,North,0,0.0,0.0,96,0.00,,,0.00,WUHU216HW,2013-09-06 05:20:00,
2013-09-06 01:25:00,43.9,42.7,30.18,North,0,0.0,0.0,96,0.00,,,0.00,WUHU216HW,2013-09-06 05:25:00,
2013-09-06 01:30:00,43.7,42.5,30.18,WSW,248,0.0,0.2,96,0.00,,,0.00,WUHU216HW,2013-09-06 05:30:00,
2013-09-06 01:35:00,43.7,42.8,30.18,North,0,0.0,0.0,97,0.00,,,0.00,WUHU216HW,2013-09-06 05:35:00,
2013-09-06 01:40:00,43.9,43.0,30.18,WSW,248,0.1,0.4,97,0.00,,,0.00,WUHU216HW,2013-09-06 05:40:00,
2013-09-06 01:45:00,43.9,43.0,30.18,North,0,0.0,0.0,97,0.00,,,0.00,WUHU216HW,2013-09-06 05:45:00,
2013-09-06 01:50:00,43.7,42.8,30.18,North,0,0.0,0.0,97,0.00,,,0.00,WUHU216HW,2013-09-06 05:50:00,
2013-09-06 01:55:00,43.6,42.7,30.18,North,0,0.0,0.0,97,0.00,,,0.00,WUHU216HW,2013-09-06 05:55:00,
2013-09-06 02:00:00,43.6,42.7,30.18,North,0,0.0,0.0,97,0.00,,,0.00,WUHU216HW,2013-09-06 06:00:00,
2013-09-06 02:05:00,43.6,42.7,30.18,North,0,0.0,0.0,97,0.00,,,0.00,WUHU216HW,2013-09-06 06:05:00,
2013-09-06 02:10:00,43.4,42.5,30.18,North,0,0.0,0.0,97,0.00,,,0.00,WUHU216HW,2013-09-06 06:10:00,
2013-09-06 02:15:00,43.6,42.7,30.18,North,0,0.0,0.0,97,0.00,,,0.00,WUHU216HW,2013-09-06 06:15:00,
2013-09-06 02:20:00,43.6,43.0,30.18,North,0,0.0,0.0,98,0.00,,,0.00,WUHU216HW,2013-09-06 06:20:00,
2013-09-06 02:25:00,43.4,42.8,30.18,North,0,0.0,0.0,98,0.00,,,0.00,WUHU216HW,2013-09-06 06:25:00,
2013-09-06 02:31:00,43.4,42.8,30.18,North,0,0.0,0.0,98,0.00,,,0.00,WUHU216HW,2013-09-06 06:31:00,
2013-09-06 02:36:00,43.4,42.8,30.18,North,0,0.0,0.0,98,0.00,,,0.00,WUHU216HW,2013-09-06 06:36:00,
2013-09-06 02:41:00,43.4,42.8,30.18,North,0,0.0,0.0,98,0.00,,,0.00,WUHU216HW,2013-09-06 06:41:00,
2013-09-06 02:46:00,43.2,42.3,30.18,North,0,0.0,0.0,97,0.00,,,0.00,WUHU216HW,2013-09-06 06:46:00,
2013-09-06 02:51:00,43.0,42.1,30.18,North,0,0.0,0.0,97,0.00,,,0.00,WUHU216HW,2013-09-06 06:51:00,
2013-09-06 02:56:00,43.0,42.1,30.18,North,0,0.0,0.0,97,0.00,,,0.00,WUHU216HW,2013-09-06 06:56:00,
2013-09-06 03:01:00,43.0,42.1,30.18,North,0,0.0,0.0,97,0.00,,,0.00,WUHU216HW,2013-09-06 07:01:00,
2013-09-06 03:06:00,42.8,41.9,30.18,North,0,0.0,0.0,97,0.00,,,0.00,WUHU216HW,2013-09-06 07:06:00,
2013-09-06 03:11:00,42.8,41.9,30.18,North,0,0.0,0.0,97,0.00,,,0.00,WUHU216HW,2013-09-06 07:11:00,
2013-09-06 03:16:00,42.8,41.9,30.18,North,0,0.0,0.0,97,0.00,,,0.00,WUHU216HW,2013-09-06 07:16:00,
2013-09-06 03:21:00,42.7,41.8,30.17,WSW,248,0.1,0.4,97,0.00,,,0.00,WUHU216HW,2013-09-06 07:21:00,
2013-09-06 03:26:00,42.3,41.4,30.18,North,0,0.0,0.0,97,0.00,,,0.00,WUHU216HW,2013-09-06 07:26:00,
2013-09-06 03:31:00,42.3,41.4,30.18,North,0,0.0,0.0,97,0.00,,,0.00,WUHU216HW,2013-09-06 07:31:00,
2013-09-06 03:36:00,42.1,41.2,30.17,North,0,0.0,0.0,97,0.00,,,0.00,WUHU216HW,2013-09-06 07:36:00,
2013-09-06 03:41:00,41.9,41.0,30.17,North,0,0.0,0.0,97,0.00,,,0.00,WUHU216HW,2013-09-06 07:41:00,
2013-09-06 03:46:00,41.9,41.0,30.17,North,0,0.0,0.0,97,0.00,,,0.00,WUHU216HW,2013-09-06 07:46:00,
2013-09-06 03:51:00,41.9,41.0,30.18,North,0,0.0,0.0,97,0.00,,,0.00,WUHU216HW,2013-09-06 07:51:00,
2013-09-06 03:56:00,41.9,41.0,30.17,North,0,0.0,0.0,97,0.00,,,0.00,WUHU216HW,2013-09-06 07:56:00,
2013-09-06 04:01:00,41.8,40.9,30.17,North,0,0.0,0.0,97,0.00,,,0.00,WUHU216HW,2013-09-06 08:01:00,
2013-09-06 04:06:00,41.8,40.9,30.17,North,0,0.0,0.0,97,0.00,,,0.00,WUHU216HW,2013-09-06 08:06:00,
2013-09-06 04:11:00,41.6,41.0,30.17,North,0,0.0,0.0,98,0.00,,,0.00,WUHU216HW,2013-09-06 08:11:00,
2013-09-06 04:16:00,41.6,41.0,30.17,North,0,0.0,0.0,98,0.00,,,0.00,WUHU216HW,2013-09-06 08:16:00,
2013-09-06 04:21:00,41.8,41.2,30.17,North,0,0.0,0.0,98,0.00,,,0.00,WUHU216HW,2013-09-06 08:21:00,
2013-09-06 04:26:00,41.8,41.2,30.17,North,0,0.0,0.0,98,0.00,,,0.00,WUHU216HW,2013-09-06 08:26:00,
2013-09-06 04:31:00,41.8,41.2,30.17,WSW,248,0.4,0.4,98,0.00,,,0.00,WUHU216HW,2013-09-06 08:31:00,
2013-09-06 04:36:00,42.1,41.5,30.18,North,0,0.0,0.0,98,0.00,,,0.00,WUHU216HW,2013-09-06 08:36:00,
2013-09-06 04:41:00,42.1,41.5,30.18,North,0,0.0,0.0,98,0.00,,,0.00,WUHU216HW,2013-09-06 08:41:00,
2013-09-06 04:46:00,42.1,41.5,30.18,North,0,0.0,0.0,98,0.00,,,0.00,WUHU216HW,2013-09-06 08:46:00,
2013-09-06 04:51:00,42.1,41.5,30.17,North,0,0.0,0.0,98,0.00,,,0.00,WUHU216HW,2013-09-06 08:51:00,
2013-09-06 04:56:00,41.9,41.3,30.17,North,0,0.0,0.0,98,0.00,,,0.00,WUHU216HW,2013-09-06 08:56:00,
2013-09-06 05:01:00,41.9,41.3,30.18,North,0,0.0,0.0,98,0.00,,,0.00,WUHU216HW,2013-09-06 09:01:00,
2013-09-06 05:06:00,41.9,41.3,30.17,North,0,0.0,0.0,98,0.00,,,0.00,WUHU216HW,2013-09-06 09:06:00,
2013-09-06 05:11:00,41.8,41.2,30.18,North,0,0.0,0.0,98,0.00,,,0.00,WUHU216HW,2013-09-06 09:11:00,
2013-09-06 05:16:00,41.8,41.2,30.18,North,0,0.0,0.0,98,0.00,,,0.00,WUHU216HW,2013-09-06 09:16:00,
2013-09-06 05:21:00,41.6,41.0,30.18,North,0,0.0,0.0,98,0.00,,,0.00,WUHU216HW,2013-09-06 09:21:00,
2013-09-06 05:26:00,41.6,41.0,30.18,North,0,0.0,0.0,98,0.00,,,0.00,WUHU216HW,2013-09-06 09:26:00,
2013-09-06 05:31:00,41.8,41.2,30.17,North,0,0.0,0.0,98,0.00,,,0.00,WUHU216HW,2013-09-06 09:31:00,
2013-09-06 05:36:00,41.8,41.2,30.18,North,0,0.0,0.0,98,0.00,,,0.00,WUHU216HW,2013-09-06 09:36:00,
2013-09-06 05:42:00,41.6,41.0,30.18,North,0,0.0,0.0,98,0.00,,,0.00,WUHU216HW,2013-09-06 09:42:00,
2013-09-06 05:47:00,41.8,41.2,30.18,North,0,0.0,0.0,98,0.00,,,0.00,WUHU216HW,2013-09-06 09:47:00,
2013-09-06 05:52:00,41.8,41.2,30.18,North,0,0.0,0.0,98,0.00,,,0.00,WUHU216HW,2013-09-06 09:52:00,
2013-09-06 05:57:00,41.8,41.2,30.18,North,0,0.0,0.0,98,0.00,,,0.00,WUHU216HW,2013-09-06 09:57:00,
2013-09-06 06:02:00,41.8,41.2,30.18,North,0,0.0,0.0,98,0.00,,,0.00,WUHU216HW,2013-09-06 10:02:00,
2013-09-06 06:07:00,41.8,41.2,30.19,North,0,0.0,0.0,98,0.00,,,0.00,WUHU216HW,2013-09-06 10:07:00,
2013-09-06 06:12:00,41.8,41.2,30.18,North,0,0.0,0.0,98,0.00,,,0.00,WUHU216HW,2013-09-06 10:12:00,
2013-09-06 06:17:00,41.8,41.2,30.18,North,0,0.0,0.0,98,0.00,,,0.00,WUHU216HW,2013-09-06 10:17:00,
2013-09-06 06:22:00,41.6,41.0,30.18,North,0,0.0,0.0,98,0.00,,,0.00,WUHU216HW,2013-09-06 10:22:00,
2013-09-06 06:27:00,41.8,41.2,30.18,North,0,0.0,0.0,98,0.00,,,0.00,WUHU216HW,2013-09-06 10:27:00,
2013-09-06 06:32:00,41.6,41.0,30.19,North,0,0.0,0.0,98,0.00,,,0.00,WUHU216HW,2013-09-06 10:32:00,
2013-09-06 06:37:00,41.6,41.0,30.19,North,0,0.0,0.0,98,0.00,,,0.00,WUHU216HW,2013-09-06 10:37:00,
2013-09-06 06:42:00,41.4,40.8,30.19,North,0,0.0,0.0,98,0.00,,,0.00,WUHU216HW,2013-09-06 10:42:00,
2013-09-06 06:47:00,41.2,40.6,30.19,North,0,0.0,0.0,98,0.00,,,0.00,WUHU216HW,2013-09-06 10:47:00,
2013-09-06 06:52:00,41.2,40.6,30.19,North,0,0.0,0.0,98,0.00,,,0.00,WUHU216HW,2013-09-06 10:52:00,
2013-09-06 06:57:00,41.0,40.4,30.19,North,0,0.0,0.0,98,0.00,,,0.00,WUHU216HW,2013-09-06 10:57:00,
2013-09-06 07:02:00,40.9,40.3,30.19,North,0,0.0,0.0,98,0.00,,,0.00,WUHU216HW,2013-09-06 11:02:00,
2013-09-06 07:07:00,40.9,40.3,30.19,North,0,0.0,0.0,98,0.00,,,0.00,WUHU216HW,2013-09-06 11:07:00,
2013-09-06 07:12:00,40.7,40.1,30.19,SW,225,0.5,0.9,98,0.00,,,0.00,WUHU216HW,2013-09-06 11:12:00,
2013-09-06 07:17:00,40.9,40.3,30.19,SW,225,0.2,0.4,98,0.00,,,0.00,WUHU216HW,2013-09-06 11:17:00,
2013-09-06 07:22:00,41.0,40.4,30.19,North,0,0.0,0.0,98,0.00,,,0.00,WUHU216HW,2013-09-06 11:22:00,
2013-09-06 07:27:00,41.2,40.6,30.20,North,0,0.0,0.0,98,0.00,,,0.00,WUHU216HW,2013-09-06 11:27:00,
2013-09-06 07:32:00,41.4,40.8,30.20,North,0,0.0,0.0,98,0.00,,,0.00,WUHU216HW,2013-09-06 11:32:00,
2013-09-06 07:37:00,41.6,41.0,30.20,North,0,0.0,0.0,98,0.00,,,0.00,WUHU216HW,2013-09-06 11:37:00,
2013-09-06 07:42:00,41.8,41.2,30.20,North,0,0.0,0.0,98,0.00,,,0.00,WUHU216HW,2013-09-06 11:42:00,
2013-09-06 07:47:00,42.1,41.5,30.20,North,0,0.0,0.0,98,0.00,,,0.00,WUHU216HW,2013-09-06 11:47:00,
2013-09-06 07:52:00,42.3,41.7,30.20,North,0,0.0,0.0,98,0.00,,,0.00,WUHU216HW,2013-09-06 11:52:00,
2013-09-06 07:57:00,42.7,42.1,30.20,North,0,0.0,0.0,98,0.00,,,0.00,WUHU216HW,2013-09-06 11:57:00,
2013-09-06 08:02:00,43.2,42.6,30.20,North,0,0.0,0.0,98,0.00,,,0.00,WUHU216HW,2013-09-06 12:02:00,
2013-09-06 08:07:00,43.6,43.3,30.20,North,0,0.0,0.0,99,0.00,,,0.00,WUHU216HW,2013-09-06 12:07:00,
2013-09-06 08:12:00,43.9,43.6,30.20,North,0,0.0,0.0,99,0.00,,,0.00,WUHU216HW,2013-09-06 12:12:00,
2013-09-06 08:17:00,44.3,44.0,30.20,North,0,0.0,0.0,99,0.00,,,0.00,WUHU216HW,2013-09-06 12:17:00,
2013-09-06 08:22:00,44.6,44.3,30.19,SW,225,0.4,0.7,99,0.00,,,0.00,WUHU216HW,2013-09-06 12:22:00,
2013-09-06 08:27:00,45.2,44.9,30.19,SSW,203,0.1,0.4,99,0.00,,,0.00,WUHU216HW,2013-09-06 12:27:00,
2013-09-06 08:32:00,46.1,45.8,30.19,WSW,248,0.2,0.4,99,0.00,,,0.00,WUHU216HW,2013-09-06 12:32:00,
2013-09-06 08:37:00,46.8,46.2,30.19,WSW,248,0.1,0.4,98,0.00,,,0.00,WUHU216HW,2013-09-06 12:37:00,
2013-09-06 08:43:00,47.5,46.9,30.20,WSW,248,0.0,0.2,98,0.00,,,0.00,WUHU216HW,2013-09-06 12:43:00,
2013-09-06 08:48:00,48.2,47.6,30.20,SW,234,0.7,2.0,98,0.00,,,0.00,WUHU216HW,2013-09-06 12:48:00,
2013-09-06 08:53:00,49.0,48.4,30.20,SW,215,1.5,3.1,98,0.00,,,0.00,WUHU216HW,2013-09-06 12:53:00,
2013-09-06 08:58:00,49.5,48.9,30.20,WSW,248,1.5,1.8,98,0.00,,,0.00,WUHU216HW,2013-09-06 12:58:00,
2013-09-06 09:03:00,50.0,49.4,30.20,South,182,1.8,3.1,98,0.00,,,0.00,WUHU216HW,2013-09-06 13:03:00,
2013-09-06 09:08:00,50.6,49.7,30.20,SW,225,0.3,0.7,97,0.00,,,0.00,WUHU216HW,2013-09-06 13:08:00,
2013-09-06 09:13:00,51.3,50.7,30.20,South,185,2.0,2.2,98,0.00,,,0.00,WUHU216HW,2013-09-06 13:13:00,
2013-09-06 09:18:00,51.8,51.2,30.20,South,171,0.7,1.1,98,0.00,,,0.00,WUHU216HW,2013-09-06 13:18:00,
2013-09-06 09:23:00,52.4,51.8,30.20,SSW,203,2.1,4.0,98,0.00,,,0.00,WUHU216HW,2013-09-06 13:23:00,
2013-09-06 09:28:00,52.9,52.3,30.19,SW,219,3.2,3.6,98,0.00,,,0.00,WUHU216HW,2013-09-06 13:28:00,
2013-09-06 09:33:00,53.6,52.6,30.19,South,189,0.9,2.5,97,0.00,,,0.00,WUHU216HW,2013-09-06 13:33:00,
2013-09-06 09:38:00,54.0,53.0,30.19,SSE,168,1.8,4.0,97,0.00,,,0.00,WUHU216HW,2013-09-06 13:38:00,
2013-09-06 09:43:00,54.7,53.7,30.19,SSE,165,1.5,2.0,97,0.00,,,0.00,WUHU216HW,2013-09-06 13:43:00,
2013-09-06 09:48:00,55.3,54.3,30.19,WSW,239,1.3,1.8,97,0.00,,,0.00,WUHU216HW,2013-09-06 13:48:00,
2013-09-06 09:53:00,56.2,55.2,30.19,SW,228,1.0,1.6,97,0.00,,,0.00,WUHU216HW,2013-09-06 13:53:00,
2013-09-06 09:58:00,57.2,56.2,30.18,SSE,164,1.6,1.8,97,0.00,,,0.00,WUHU216HW,2013-09-06 13:58:00,
2013-09-06 10:03:00,58.3,57.7,30.18,SSW,204,2.5,2.7,98,0.00,,,0.00,WUHU216HW,2013-09-06 14:03:00,
2013-09-06 10:08:00,59.2,58.6,30.19,SSW,192,1.7,2.0,98,0.00,,,0.00,WUHU216HW,2013-09-06 14:08:00,
2013-09-06 10:13:00,60.1,59.4,30.19,SW,224,1.1,2.7,98,0.00,,,0.00,WUHU216HW,2013-09-06 14:13:00,
2013-09-06 10:18:00,60.8,59.8,30.18,South,189,0.7,1.6,97,0.00,,,0.00,WUHU216HW,2013-09-06 14:18:00,
2013-09-06 10:23:00,61.7,60.0,30.18,SSW,201,3.5,4.7,94,0.00,,,0.00,WUHU216HW,2013-09-06 14:23:00,
2013-09-06 10:28:00,62.5,60.2,30.18,SW,216,2.0,2.5,92,0.00,,,0.00,WUHU216HW,2013-09-06 14:28:00,
2013-09-06 10:33:00,63.2,60.5,30.18,SSE,165,1.8,2.2,91,0.00,,,0.00,WUHU216HW,2013-09-06 14:33:00,
2013-09-06 10:38:00,63.9,60.5,30.18,SSE,163,3.4,5.1,89,0.00,,,0.00,WUHU216HW,2013-09-06 14:38:00,
2013-09-06 10:43:00,64.4,60.7,30.18,SW,219,2.2,3.1,88,0.00,,,0.00,WUHU216HW,2013-09-06 14:43:00,
2013-09-06 10:48:00,65.2,61.1,30.18,SW,222,2.9,3.4,87,0.00,,,0.00,WUHU216HW,2013-09-06 14:48:00,
2013-09-06 10:53:00,65.9,61.4,30.18,SSE,148,3.2,4.5,85,0.00,,,0.00,WUHU216HW,2013-09-06 14:53:00,
2013-09-06 10:58:00,66.6,61.4,30.18,NW,319,1.3,1.8,83,0.00,,,0.00,WUHU216HW,2013-09-06 14:58:00,
2013-09-06 11:03:00,67.3,61.7,30.18,SW,221,3.3,4.7,82,0.00,,,0.00,WUHU216HW,2013-09-06 15:03:00,
2013-09-06 11:08:00,68.2,61.8,30.18,SW,219,3.9,4.7,80,0.00,,,0.00,WUHU216HW,2013-09-06 15:08:00,
2013-09-06 11:13:00,68.6,61.4,30.18,South,178,1.9,2.5,78,0.00,,,0.00,WUHU216HW,2013-09-06 15:13:00,
2013-09-06 11:18:00,69.1,61.9,30.18,ESE,119,3.2,5.4,78,0.00,,,0.00,WUHU216HW,2013-09-06 15:18:00,
2013-09-06 11:23:00,69.5,61.9,30.17,SW,235,3.2,4.7,76,0.00,,,0.00,WUHU216HW,2013-09-06 15:23:00,
2013-09-06 11:28:00,70.0,61.1,30.17,South,175,4.2,7.2,73,0.00,,,0.00,WUHU216HW,2013-09-06 15:28:00,
2013-09-06 11:33:00,70.2,61.3,30.17,WSW,242,3.0,6.5,73,0.00,,,0.00,WUHU216HW,2013-09-06 15:33:00,
2013-09-06 11:38:00,70.2,61.3,30.17,SW,216,2.1,3.4,73,0.00,,,0.00,WUHU216HW,2013-09-06 15:38:00,
2013-09-06 11:43:00,70.9,61.6,30.17,SW,229,2.9,4.7,72,0.00,,,0.00,WUHU216HW,2013-09-06 15:43:00,
2013-09-06 11:48:00,71.5,62.1,30.16,WNW,284,2.8,6.0,72,0.00,,,0.00,WUHU216HW,2013-09-06 15:48:00,
2013-09-06 11:53:00,71.6,61.8,30.16,WSW,255,4.3,5.8,71,0.00,,,0.00,WUHU216HW,2013-09-06 15:53:00,
2013-09-06 11:59:00,71.5,61.3,30.16,WSW,256,2.2,4.3,70,0.00,,,0.00,WUHU216HW,2013-09-06 15:59:00,
2013-09-06 12:04:00,72.0,61.3,30.16,WSW,243,3.1,3.4,69,0.00,,,0.00,WUHU216HW,2013-09-06 16:04:00,
2013-09-06 12:09:00,72.2,61.0,30.16,West,263,3.2,4.7,67,0.00,,,0.00,WUHU216HW,2013-09-06 16:09:00,
2013-09-06 12:14:00,72.5,61.3,30.16,SW,229,3.7,4.9,67,0.00,,,0.00,WUHU216HW,2013-09-06 16:14:00,
2013-09-06 12:19:00,73.3,62.1,30.16,South,171,1.6,1.8,67,0.00,,,0.00,WUHU216HW,2013-09-06 16:19:00,
2013-09-06 12:24:00,73.8,62.1,30.16,SW,235,2.7,3.4,66,0.00,,,0.00,WUHU216HW,2013-09-06 16:24:00,
2013-09-06 12:29:00,74.3,62.1,30.15,West,280,0.9,1.3,65,0.00,,,0.00,WUHU216HW,2013-09-06 16:29:00,
2013-09-06 12:34:00,74.9,62.6,30.15,WSW,241,4.8,5.4,65,0.00,,,0.00,WUHU216HW,2013-09-06 16:34:00,
2013-09-06 12:39:00,74.7,62.0,30.15,WSW,242,2.8,3.8,64,0.00,,,0.00,WUHU216HW,2013-09-06 16:39:00,
2013-09-06 12:44:00,74.9,62.1,30.15,WSW,257,1.6,2.2,64,0.00,,,0.00,WUHU216HW,2013-09-06 16:44:00,
2013-09-06 12:49:00,74.9,62.1,30.15,West,279,4.1,6.3,64,0.00,,,0.00,WUHU216HW,2013-09-06 16:49:00,
2013-09-06 12:54:00,75.1,61.8,30.14,West,275,2.0,3.1,63,0.00,,,0.00,WUHU216HW,2013-09-06 16:54:00,
2013-09-06 12:59:00,75.2,61.4,30.14,WSW,257,1.3,1.8,62,0.00,,,0.00,WUHU216HW,2013-09-06 16:59:00,
2013-09-06 13:04:00,75.6,62.3,30.14,West,280,4.5,4.7,63,0.00,,,0.00,WUHU216HW,2013-09-06 17:04:00,
2013-09-06 13:09:00,76.0,62.2,30.14,South,177,3.4,4.5,62,0.00,,,0.00,WUHU216HW,2013-09-06 17:09:00,
2013-09-06 13:14:00,76.3,63.0,30.14,SSW,203,2.5,3.6,63,0.00,,,0.00,WUHU216HW,2013-09-06 17:14:00,
2013-09-06 13:19:00,77.0,63.1,30.14,WSW,243,4.5,4.9,62,0.00,,,0.00,WUHU216HW,2013-09-06 17:19:00,
2013-09-06 13:24:00,77.0,62.1,30.13,WSW,241,2.3,4.5,60,0.00,,,0.00,WUHU216HW,2013-09-06 17:24:00,
2013-09-06 13:29:00,77.2,62.3,30.13,SW,221,1.8,2.5,60,0.00,,,0.00,WUHU216HW,2013-09-06 17:29:00,
2013-09-06 13:34:00,76.7,61.2,30.13,WSW,239,3.3,3.6,58,0.00,,,0.00,WUHU216HW,2013-09-06 17:34:00,
2013-09-06 13:39:00,76.7,61.2,30.12,West,277,3.3,5.1,58,0.00,,,0.00,WUHU216HW,2013-09-06 17:39:00,
2013-09-06 13:44:00,77.2,61.7,30.12,SSW,194,2.9,4.3,58,0.00,,,0.00,WUHU216HW,2013-09-06 17:44:00,
2013-09-06 13:49:00,77.6,62.1,30.12,West,262,4.1,4.7,58,0.00,,,0.00,WUHU216HW,2013-09-06 17:49:00,
2013-09-06 13:54:00,77.9,62.4,30.12,SSE,168,1.6,2.0,58,0.00,,,0.00,WUHU216HW,2013-09-06 17:54:00,
2013-09-06 13:59:00,77.9,61.8,30.12,SSW,194,3.5,4.0,57,0.00,,,0.00,WUHU216HW,2013-09-06 17:59:00,
2013-09-06 14:04:00,78.5,62.9,30.12,West,261,3.8,4.3,58,0.00,,,0.00,WUHU216HW,2013-09-06 18:04:00,
2013-09-06 14:09:00,78.5,61.8,30.11,SSW,208,4.4,6.0,56,0.00,,,0.00,WUHU216HW,2013-09-06 18:09:00,
2013-09-06 14:14:00,78.5,61.8,30.11,WSW,242,1.9,3.1,56,0.00,,,0.00,WUHU216HW,2013-09-06 18:14:00,
2013-09-06 14:19:00,78.5,61.8,30.11,WSW,239,3.5,4.0,56,0.00,,,0.00,WUHU216HW,2013-09-06 18:19:00,
2013-09-06 14:24:00,78.7,61.4,30.11,West,275,2.3,3.6,55,0.00,,,0.00,WUHU216HW,2013-09-06 18:24:00,
2013-09-06 14:29:00,78.7,62.0,30.11,SSW,211,3.2,4.3,56,0.00,,,0.00,WUHU216HW,2013-09-06 18:29:00,
2013-09-06 14:34:00,79.4,62.6,30.11,SW,235,5.9,6.9,56,0.00,,,0.00,WUHU216HW,2013-09-06 18:34:00,
2013-09-06 14:39:00,79.6,61.6,30.10,WSW,243,1.2,2.5,54,0.00,,,0.00,WUHU216HW,2013-09-06 18:39:00,
2013-09-06 14:44:00,79.7,61.7,30.10,SSE,162,2.7,4.0,54,0.00,,,0.00,WUHU216HW,2013-09-06 18:44:00,
2013-09-06 14:49:00,79.9,61.3,30.09,WSW,249,2.0,2.5,53,0.00,,,0.00,WUHU216HW,2013-09-06 18:49:00,
2013-09-06 14:54:00,79.9,61.3,30.09,SW,215,3.7,4.9,53,0.00,,,0.00,WUHU216HW,2013-09-06 18:54:00,
2013-09-06 14:59:00,79.7,61.7,30.09,WSW,240,1.5,3.6,54,0.00,,,0.00,WUHU216HW,2013-09-06 18:59:00,
2013-09-06 15:04:00,79.7,61.7,30.09,WSW,251,2.4,4.0,54,0.00,,,0.00,WUHU216HW,2013-09-06 19:04:00,
2013-09-06 15:09:00,79.9,61.9,30.09,SSW,192,2.9,5.4,54,0.00,,,0.00,WUHU216HW,2013-09-06 19:09:00,
2013-09-06 15:14:00,80.5,62.5,30.08,SSE,155,2.3,3.4,54,0.00,,,0.00,WUHU216HW,2013-09-06 19:14:00,
2013-09-06 15:20:00,80.8,62.1,30.09,SSW,193,5.5,6.5,53,0.00,,,0.00,WUHU216HW,2013-09-06 19:20:00,
2013-09-06 15:25:00,80.8,61.5,30.09,ENE,68,1.1,1.3,52,0.00,,,0.00,WUHU216HW,2013-09-06 19:25:00,
2013-09-06 15:30:00,80.5,61.9,30.08,SW,225,1.7,2.5,53,0.00,,,0.00,WUHU216HW,2013-09-06 19:30:00,
2013-09-06 15:35:00,80.3,60.4,30.08,WNW,290,3.2,3.6,51,0.00,,,0.00,WUHU216HW,2013-09-06 19:35:00,
2013-09-06 15:40:00,79.7,61.1,30.08,South,180,1.1,2.5,53,0.00,,,0.00,WUHU216HW,2013-09-06 19:40:00,
2013-09-06 15:45:00,79.9,60.7,30.08,WSW,248,4.7,5.6,52,0.00,,,0.00,WUHU216HW,2013-09-06 19:45:00,
2013-09-06 15:50:00,79.6,59.8,30.08,SW,221,5.9,7.2,51,0.00,,,0.00,WUHU216HW,2013-09-06 19:50:00,
2013-09-06 15:55:00,80.3,61.1,30.08,SW,233,5.9,6.5,52,0.00,,,0.00,WUHU216HW,2013-09-06 19:55:00,
2013-09-06 16:00:00,81.0,61.7,30.08,SW,230,2.2,2.7,52,0.00,,,0.00,WUHU216HW,2013-09-06 20:00:00,
2013-09-06 16:05:00,81.2,61.2,30.07,SSW,200,3.0,4.0,51,0.00,,,0.00,WUHU216HW,2013-09-06 20:05:00,
2013-09-06 16:10:00,81.2,61.2,30.07,WSW,245,4.5,5.1,51,0.00,,,0.00,WUHU216HW,2013-09-06 20:10:00,
2013-09-06 16:15:00,81.2,61.2,30.07,SSW,213,2.9,3.4,51,0.00,,,0.00,WUHU216HW,2013-09-06 20:15:00,
2013-09-06 16:20:00,81.5,62.2,30.07,SW,214,1.4,2.5,52,0.00,,,0.00,WUHU216HW,2013-09-06 20:20:00,
2013-09-06 16:25:00,81.7,61.1,30.07,West,263,3.9,4.0,50,0.00,,,0.00,WUHU216HW,2013-09-06 20:25:00,
2013-09-06 16:30:00,81.4,61.4,30.07,WSW,246,3.5,5.4,51,0.00,,,0.00,WUHU216HW,2013-09-06 20:30:00,
2013-09-06 16:35:00,81.2,61.2,30.07,West,270,1.3,1.8,51,0.00,,,0.00,WUHU216HW,2013-09-06 20:35:00,
2013-09-06 16:40:00,80.5,59.9,30.07,West,269,1.4,2.2,50,0.00,,,0.00,WUHU216HW,2013-09-06 20:40:00,
2013-09-06 16:45:00,79.2,60.0,30.07,SW,228,0.9,1.1,52,0.00,,,0.00,WUHU216HW,2013-09-06 20:45:00,
2013-09-06 16:50:00,79.6,61.0,30.07,WSW,253,2.0,2.5,53,0.00,,,0.00,WUHU216HW,2013-09-06 20:50:00,
2013-09-06 16:55:00,80.3,61.7,30.07,WSW,253,2.6,4.0,53,0.00,,,0.00,WUHU216HW,2013-09-06 20:55:00,
2013-09-06 17:00:00,80.6,61.3,30.07,SW,234,1.9,2.7,52,0.00,,,0.00,WUHU216HW,2013-09-06 21:00:00,
2013-09-06 17:05:00,81.0,61.7,30.07,SSW,212,2.5,2.9,52,0.00,,,0.00,WUHU216HW,2013-09-06 21:05:00,
2013-09-06 17:10:00,81.0,61.7,30.07,SW,233,2.4,3.6,52,0.00,,,0.00,WUHU216HW,2013-09-06 21:10:00,
2013-09-06 17:15:00,81.7,62.4,30.07,South,171,0.6,1.1,52,0.00,,,0.00,WUHU216HW,2013-09-06 21:15:00,
2013-09-06 17:20:00,81.4,62.1,30.07,WSW,248,2.1,4.0,52,0.00,,,0.00,WUHU216HW,2013-09-06 21:20:00,
2013-09-06 17:25:00,81.4,62.1,30.07,West,268,1.4,1.8,52,0.00,,,0.00,WUHU216HW,2013-09-06 21:25:00,
2013-09-06 17:30:00,81.0,61.7,30.07,SW,233,1.1,1.3,52,0.00,,,0.00,WUHU216HW,2013-09-06 21:30:00,
2013-09-06 17:35:00,81.0,61.7,30.07,WSW,238,2.5,3.4,52,0.00,,,0.00,WUHU216HW,2013-09-06 21:35:00,
2013-09-06 17:40:00,81.5,62.2,30.06,SW,225,1.7,3.1,52,0.00,,,0.00,WUHU216HW,2013-09-06 21:40:00,
2013-09-06 17:45:00,81.5,61.5,30.06,West,279,2.5,2.7,51,0.00,,,0.00,WUHU216HW,2013-09-06 21:45:00,
2013-09-06 17:50:00,81.5,62.2,30.06,WSW,248,3.7,5.1,52,0.00,,,0.00,WUHU216HW,2013-09-06 21:50:00,
2013-09-06 17:55:00,81.4,60.8,30.06,WSW,242,2.3,3.1,50,0.00,,,0.00,WUHU216HW,2013-09-06 21:55:00,
2013-09-06 18:00:00,81.0,61.7,30.06,SSW,198,2.7,3.8,52,0.00,,,0.00,WUHU216HW,2013-09-06 22:00:00,
2013-09-06 18:05:00,81.0,61.7,30.05,SSW,206,1.9,3.8,52,0.00,,,0.00,WUHU216HW,2013-09-06 22:05:00,
2013-09-06 18:10:00,81.0,61.7,30.05,ESE,113,0.6,0.9,52,0.00,,,0.00,WUHU216HW,2013-09-06 22:10:00,
2013-09-06 18:15:00,80.5,61.2,30.05,SW,217,2.3,2.5,52,0.00,,,0.00,WUHU216HW,2013-09-06 22:15:00,
2013-09-06 18:20:00,80.1,61.5,30.05,SE,146,1.6,1.8,53,0.00,,,0.00,WUHU216HW,2013-09-06 22:20:00,
2013-09-06 18:26:00,80.1,61.5,30.05,SW,236,1.1,1.6,53,0.00,,,0.00,WUHU216HW,2013-09-06 22:26:00,
2013-09-06 18:31:00,80.1,61.5,30.05,SSW,204,1.6,1.8,53,0.00,,,0.00,WUHU216HW,2013-09-06 22:31:00,
2013-09-06 18:36:00,79.7,61.7,30.04,SE,136,2.6,3.6,54,0.00,,,0.00,WUHU216HW,2013-09-06 22:36:00,
2013-09-06 18:41:00,79.0,61.1,30.04,South,177,1.4,3.8,54,0.00,,,0.00,WUHU216HW,2013-09-06 22:41:00,
2013-09-06 18:46:00,78.8,60.9,30.04,South,174,2.7,3.1,54,0.00,,,0.00,WUHU216HW,2013-09-06 22:46:00,
2013-09-06 18:51:00,78.7,61.4,30.04,West,281,1.0,1.1,55,0.00,,,0.00,WUHU216HW,2013-09-06 22:51:00,
2013-09-06 18:56:00,78.1,60.2,30.04,SW,225,1.5,2.0,54,0.00,,,0.00,WUHU216HW,2013-09-06 22:56:00,
2013-09-06 19:01:00,77.4,60.2,30.04,SW,225,0.7,0.7,55,0.00,,,0.00,WUHU216HW,2013-09-06 23:01:00,
2013-09-06 19:06:00,76.7,60.1,30.04,SSE,151,0.5,1.1,56,0.00,,,0.00,WUHU216HW,2013-09-06 23:06:00,
2013-09-06 19:11:00,75.8,59.3,30.04,North,0,0.0,0.0,56,0.00,,,0.00,WUHU216HW,2013-09-06 23:11:00,
2013-09-06 19:16:00,75.2,59.3,30.04,ESE,119,0.2,0.4,57,0.00,,,0.00,WUHU216HW,2013-09-06 23:16:00,
2013-09-06 19:21:00,74.3,59.5,30.04,West,273,0.6,0.9,60,0.00,,,0.00,WUHU216HW,2013-09-06 23:21:00,
2013-09-06 19:26:00,73.4,59.2,30.04,North,0,0.0,0.0,61,0.00,,,0.00,WUHU216HW,2013-09-06 23:26:00,
2013-09-06 19:31:00,72.5,58.9,30.03,WSW,248,0.3,0.4,62,0.00,,,0.00,WUHU216HW,2013-09-06 23:31:00,
2013-09-06 19:36:00,71.6,59.0,30.03,SW,225,0.7,0.7,64,0.00,,,0.00,WUHU216HW,2013-09-06 23:36:00,
2013-09-06 19:41:00,70.7,59.1,30.03,North,0,0.0,0.0,66,0.00,,,0.00,WUHU216HW,2013-09-06 23:41:00,
2013-09-06 19:46:00,70.0,58.4,30.03,North,0,0.0,0.0,66,0.00,,,0.00,WUHU216HW,2013-09-06 23:46:00,
2013-09-06 19:51:00,69.3,58.2,30.02,SE,135,0.2,0.4,67,0.00,,,0.00,WUHU216HW,2013-09-06 23:51:00,
2013-09-06 19:56:00,68.4,57.8,30.02,North,0,0.0,0.0,69,0.00,,,0.00,WUHU216HW,2013-09-06 23:56:00,
2013-09-06 20:01:00,67.5,57.4,30.02,North,0,0.0,0.0,70,0.00,,,0.00,WUHU216HW,2013-09-07 00:01:00,
2013-09-06 20:06:00,66.8,57.2,30.02,North,0,0.0,0.0,71,0.00,,,0.00,WUHU216HW,2013-09-07 00:06:00,
2013-09-06 20:11:00,66.1,56.9,30.02,North,0,0.0,0.0,72,0.00,,,0.00,WUHU216HW,2013-09-07 00:11:00,
2013-09-06 20:16:00,65.5,56.8,30.02,SSW,192,1.0,1.1,73,0.00,,,0.00,WUHU216HW,2013-09-07 00:16:00,
2013-09-06 20:21:00,64.8,56.1,30.02,SSW,203,0.4,0.7,73,0.00,,,0.00,WUHU216HW,2013-09-07 00:21:00,
2013-09-06 20:26:00,64.3,56.0,30.02,North,0,0.0,0.0,74,0.00,,,0.00,WUHU216HW,2013-09-07 00:26:00,
2013-09-06 20:31:00,63.7,55.4,30.02,North,0,0.0,0.0,74,0.00,,,0.00,WUHU216HW,2013-09-07 00:31:00,
2013-09-06 20:36:00,63.2,55.4,30.01,North,0,0.0,0.0,75,0.00,,,0.00,WUHU216HW,2013-09-07 00:36:00,
2013-09-06 20:41:00,62.8,55.8,30.01,North,0,0.0,0.0,78,0.00,,,0.00,WUHU216HW,2013-09-07 00:41:00,
2013-09-06 20:46:00,62.3,55.3,30.01,North,0,0.0,0.0,78,0.00,,,0.00,WUHU216HW,2013-09-07 00:46:00,
2013-09-06 20:51:00,61.9,54.9,30.02,North,0,0.0,0.0,78,0.00,,,0.00,WUHU216HW,2013-09-07 00:51:00,
2013-09-06 20:56:00,61.4,54.8,30.02,North,0,0.0,0.0,79,0.00,,,0.00,WUHU216HW,2013-09-07 00:56:00,
2013-09-06 21:01:00,60.8,54.6,30.03,North,0,0.0,0.0,80,0.00,,,0.00,WUHU216HW,2013-09-07 01:01:00,
2013-09-06 21:06:00,60.7,54.5,30.02,North,0,0.0,0.0,80,0.00,,,0.00,WUHU216HW,2013-09-07 01:06:00,
2013-09-06 21:11:00,60.3,54.1,30.02,North,0,0.0,0.0,80,0.00,,,0.00,WUHU216HW,2013-09-07 01:11:00,
2013-09-06 21:16:00,60.1,54.3,30.02,North,0,0.0,0.0,81,0.00,,,0.00,WUHU216HW,2013-09-07 01:16:00,
2013-09-06 21:21:00,59.8,54.3,30.02,North,0,0.0,0.0,82,0.00,,,0.00,WUHU216HW,2013-09-07 01:21:00,
2013-09-06 21:26:00,59.4,54.0,30.02,North,0,0.0,0.0,82,0.00,,,0.00,WUHU216HW,2013-09-07 01:26:00,
2013-09-06 21:31:00,59.2,53.8,30.01,North,0,0.0,0.0,82,0.00,,,0.00,WUHU216HW,2013-09-07 01:31:00,
2013-09-06 21:36:00,58.7,53.3,30.01,SSW,203,0.4,0.4,82,0.00,,,0.00,WUHU216HW,2013-09-07 01:36:00,
2013-09-06 21:42:00,58.5,53.4,30.01,North,0,0.0,0.0,83,0.00,,,0.00,WUHU216HW,2013-09-07 01:42:00,
2013-09-06 21:47:00,58.1,53.4,30.01,North,0,0.0,0.0,84,0.00,,,0.00,WUHU216HW,2013-09-07 01:47:00,
2013-09-06 21:52:00,58.0,53.3,30.01,North,0,0.0,0.0,84,0.00,,,0.00,WUHU216HW,2013-09-07 01:52:00,
2013-09-06 21:57:00,57.6,53.3,30.01,SSW,203,0.2,0.4,85,0.00,,,0.00,WUHU216HW,2013-09-07 01:57:00,
2013-09-06 22:02:00,57.4,53.1,30.01,North,0,0.0,0.0,85,0.00,,,0.00,WUHU216HW,2013-09-07 02:02:00,
2013-09-06 22:07:00,57.2,53.2,30.01,SW,225,0.5,1.1,87,0.00,,,0.00,WUHU216HW,2013-09-07 02:07:00,
2013-09-06 22:12:00,57.2,53.6,30.00,SSW,197,0.3,0.7,88,0.00,,,0.00,WUHU216HW,2013-09-07 02:12:00,
2013-09-06 22:17:00,57.4,53.8,30.00,SSW,210,0.5,0.7,88,0.00,,,0.00,WUHU216HW,2013-09-07 02:17:00,
2013-09-06 22:22:00,57.8,54.1,30.00,South,180,0.5,1.1,88,0.00,,,0.00,WUHU216HW,2013-09-07 02:22:00,
2013-09-06 22:27:00,58.0,54.3,30.00,WNW,287,0.3,0.4,88,0.00,,,0.00,WUHU216HW,2013-09-07 02:27:00,
2013-09-06 22:32:00,58.1,54.4,30.00,SSW,213,1.0,1.6,88,0.00,,,0.00,WUHU216HW,2013-09-07 02:32:00,
2013-09-06 22:37:00,58.3,54.6,30.00,East,90,0.1,0.2,88,0.00,,,0.00,WUHU216HW,2013-09-07 02:37:00,
2013-09-06 22:42:00,58.3,54.3,30.00,SE,135,0.2,0.4,87,0.00,,,0.00,WUHU216HW,2013-09-07 02:42:00,
2013-09-06 22:47:00,58.1,54.1,30.00,SW,225,1.0,1.6,87,0.00,,,0.00,WUHU216HW,2013-09-07 02:47:00,
2013-09-06 22:52:00,58.0,54.3,30.00,SSE,158,0.1,0.2,88,0.00,,,0.00,WUHU216HW,2013-09-07 02:52:00,
2013-09-06 22:57:00,58.0,54.3,30.00,ESE,113,0.2,0.4,88,0.00,,,0.00,WUHU216HW,2013-09-07 02:57:00,
2013-09-06 23:02:00,58.0,54.3,30.00,SSE,166,0.6,1.1,88,0.00,,,0.00,WUHU216HW,2013-09-07 03:02:00,
2013-09-06 23:07:00,58.0,54.3,29.99,SE,135,0.3,0.4,88,0.00,,,0.00,WUHU216HW,2013-09-07 03:07:00,
2013-09-06 23:12:00,58.0,54.7,30.00,SSW,208,0.6,1.3,89,0.00,,,0.00,WUHU216HW,2013-09-07 03:12:00,
2013-09-06 23:17:00,58.0,54.7,29.99,ESE,113,0.7,0.9,89,0.00,,,0.00,WUHU216HW,2013-09-07 03:17:00,
2013-09-06 23:22:00,58.0,54.7,29.99,SSE,150,0.3,0.4,89,0.00,,,0.00,WUHU216HW,2013-09-07 03:22:00,
2013-09-06 23:27:00,57.8,54.5,29.99,SE,135,0.2,0.4,89,0.00,,,0.00,WUHU216HW,2013-09-07 03:27:00,
2013-09-06 23:32:00,57.8,54.5,29.99,North,0,0.0,0.0,89,0.00,,,0.00,WUHU216HW,2013-09-07 03:32:00,
2013-09-06 23:37:00,57.6,54.3,29.99,SE,135,0.2,0.4,89,0.00,,,0.00,WUHU216HW,2013-09-07 03:37:00,
2013-09-06 23:42:00,57.4,54.1,29.99,ESE,113,0.1,0.4,89,0.00,,,0.00,WUHU216HW,2013-09-07 03:42:00,
2013-09-06 23:47:00,57.1,53.8,29.99,East,90,0.3,0.7,89,0.00,,,0.00,WUHU216HW,2013-09-07 03:47:00,
2013-09-06 23:52:00,56.7,53.4,29.99,North,0,0.0,0.0,89,0.00,,,0.00,WUHU216HW,2013-09-07 03:52:00,
2013-09-06 23:57:00,56.5,53.2,29.98,East,90,0.3,0.7,89,0.00,,,0.00,WUHU216HW,2013-09-07 03:57:00,